Weather observations for the past three days for
Tacoma, Tacoma Narrows Airport
| Date | Time (pdt) | Wind (kph) | Vis. (km) | Weather | Sky Cond. | Temperature (ºC) | Relative Humidity | Wind Chill (°C) | Heat Index (°C) | Pressure | Precipitation (cm) | ||||||
|---|---|---|---|---|---|---|---|---|---|---|---|---|---|---|---|---|---|
| Air | Dwpt | 6 hour | altimeter (cm) | sea level (mb) | 1 hr | 3 hr | 6 hr | ||||||||||
| Max. | Min. | ||||||||||||||||
| 07 | 09:53 | W 9 | 16.09 | Partly Cloudy | SCT018 | 11.7 | 6.1 | 69% | 76.56 | 1020.7 | |||||||
| 07 | 08:53 | W 11 | 16.09 | Mostly Cloudy | BKN018 | 11.1 | 6.7 | 75% | 76.56 | 1020.7 | |||||||
| 07 | 07:53 | SW 6 | 16.09 | Overcast | OVC019 | 10 | 6.1 | 77% | 76.58 | 1021.1 | |||||||
| 07 | 06:53 | SW 6 | 16.09 | Overcast | OVC021 | 10 | 6.1 | 77% | 76.56 | 1020.7 | |||||||
| 07 | 05:53 | Vrbl 6 | 16.09 | Overcast | OVC020 | 10 | 6.1 | 77% | 76.56 | 1020.5 | |||||||
| 07 | 04:53 | SW 7 | 16.09 | Overcast | OVC023 | 10 | 7.2 | 11.1 | 10 | 83% | 9 | 76.58 | 1020.8 | ||||
| 07 | 03:53 | S 7 | 16.09 | Overcast | OVC021 | 10.6 | 7.8 | 83% | 76.58 | 1021.1 | |||||||
| 07 | 02:53 | SW 7 | 16.09 | Overcast | FEW019 OVC026 | 10.6 | 7.8 | 83% | 76.58 | 1021.0 | |||||||
| 07 | 01:53 | SW 9 | 16.09 | Overcast | OVC032 | 10.6 | 7.8 | 83% | 76.58 | 1021.1 | |||||||
| 07 | 00:53 | SW 13 | 16.09 | Overcast | BKN025 OVC035 | 11.1 | 7.8 | 80% | 76.61 | 1021.2 | |||||||
| 06 | 23:53 | SW 13 | 16.09 | Overcast | OVC037 | 11.1 | 7.8 | 80% | 76.58 | 1021.0 | |||||||
| 06 | 22:53 | SW 9 | 9.66 | Fog/Mist | FEW017 OVC023 | 10.6 | 8.9 | 13.9 | 10.6 | 89% | 76.61 | 1021.2 | 0.03 | 0.03 | |||
| 06 | 21:53 | SW 9 | 8.05 | Fog/Mist | OVC021 | 11.1 | 8.9 | 86% | 76.61 | 1021.2 | |||||||
| 06 | 20:53 | SW 11 | 11.27 | Overcast | OVC023 | 11.7 | 8.9 | 83% | 76.58 | 1020.9 | |||||||
| 06 | 19:53 | SW 11 | 16.09 | Overcast | OVC028 | 12.2 | 8.3 | 77% | 76.53 | 1020.4 | |||||||
| 06 | 18:53 | SW 15 | 16.09 | Overcast | OVC022 | 12.8 | 8.3 | 74% | 76.53 | 1020.4 | |||||||
| 06 | 17:53 | Vrbl 11 | 16.09 | Overcast | OVC028 | 13.9 | 8.9 | 72% | 76.53 | 1020.4 | |||||||
| 06 | 15:53 | SW 15 | 16.09 | Overcast | BKN023 OVC028 | 13.3 | 8.3 | 72% | 76.56 | 1020.7 | |||||||
| 06 | 14:53 | SW 11 | 16.09 | Overcast | BKN023 OVC031 | 13.3 | 8.3 | 72% | 76.58 | 1020.9 | |||||||
| 06 | 13:53 | SW 17 G 30 | 16.09 | Overcast | OVC026 | 13.3 | 8.3 | 72% | 76.58 | 1020.9 | |||||||
| 06 | 12:53 | SW 13 | 16.09 | Overcast | OVC023 | 13.3 | 8.3 | 72% | 76.56 | 1020.6 | |||||||
| 06 | 11:53 | SW 11 | 16.09 | Overcast | OVC020 | 12.8 | 8.3 | 74% | 76.53 | 1020.4 | |||||||
| 06 | 10:53 | SW 11 | 16.09 | Overcast | OVC014 | 12.2 | 7.8 | 12.2 | 10.6 | 75% | 76.53 | 1020.1 | |||||
| 06 | 09:53 | SW 13 | 16.09 | Overcast | BKN010 OVC023 | 11.7 | 8.9 | 83% | 76.53 | 1020.2 | |||||||
| 06 | 08:53 | SW 7 | 16.09 | Overcast | BKN008 OVC023 | 11.1 | 10 | 93% | 76.5 | 1019.9 | |||||||
| 06 | 07:53 | SW 7 | 9.66 | Fog/Mist | OVC006 | 10.6 | 10 | 96% | 76.5 | 1019.8 | |||||||
| 06 | 06:53 | SW 7 | 8.05 | Fog/Mist | BKN005 OVC011 | 10.6 | 10 | 96% | 76.48 | 1019.5 | |||||||
| 06 | 05:53 | SW 9 | 4.02 | Fog/Mist | OVC005 | 10.6 | 10 | 96% | 76.45 | 1019.1 | |||||||
| 06 | 04:53 | SW 7 | 16.09 | Overcast | OVC008 | 11.1 | 9.4 | 12.8 | 10.6 | 89% | 76.43 | 1018.7 | |||||
| 06 | 03:53 | SW 6 | 16.09 | Overcast | OVC010 | 11.1 | 9.4 | 89% | 76.38 | 1018.4 | |||||||
| 06 | 02:53 | SW 6 | 16.09 | Overcast | OVC013 | 11.1 | 9.4 | 89% | 76.35 | 1018.0 | |||||||
| 06 | 01:53 | SW 7 | 16.09 | Mostly Cloudy | BKN015 | 11.1 | 9.4 | 89% | 76.33 | 1017.7 | |||||||
| 06 | 00:53 | SW 7 | 16.09 | Fair | CLR | 10.6 | 8.9 | 89% | 76.3 | 1017.4 | |||||||
| 05 | 23:53 | W 6 | 16.09 | Fair | CLR | 11.7 | 9.4 | 86% | 76.28 | 1016.8 | |||||||
| 05 | 22:53 | W 9 | 16.09 | Fair | CLR | 12.8 | 9.4 | 16.7 | 12.8 | 80% | 76.25 | 1016.4 | |||||
| 05 | 21:53 | SW 7 | 16.09 | Fair | CLR | 13.3 | 10 | 81% | 76.23 | 1016.1 | |||||||
| 05 | 20:53 | SW 7 | 16.09 | Fair | CLR | 15 | 10 | 72% | 76.17 | 1015.6 | |||||||
| 05 | 19:53 | SW 9 | 16.09 | Fair | CLR | 15.6 | 11.1 | 75% | 76.12 | 1014.9 | |||||||
| 05 | 18:53 | S 11 | 16.09 | Fair | CLR | 16.1 | 11.1 | 72% | 76.15 | 1015.0 | |||||||
| 05 | 17:53 | S 11 | 16.09 | Fair | CLR | 16.1 | 11.1 | 72% | 76.15 | 1015.1 | |||||||
| 05 | 16:53 | SW 11 | 16.09 | Overcast | OVC021 | 16.7 | 11.1 | 16.7 | 13.3 | 70% | 76.17 | 1015.5 | |||||
| 05 | 15:53 | Vrbl 7 | 16.09 | Overcast | OVC021 | 15.6 | 10.6 | 72% | 76.23 | 1016.1 | |||||||
| 05 | 14:53 | SW 6 | 16.09 | Overcast | OVC019 | 15 | 10.6 | 75% | 76.25 | 1016.3 | |||||||
| 05 | 13:53 | S 7 | 16.09 | Overcast | OVC017 | 14.4 | 10.6 | 78% | 76.25 | 1016.7 | |||||||
| 05 | 12:53 | W 7 | 16.09 | Overcast | OVC017 | 13.9 | 10 | 78% | 76.25 | 1016.6 | |||||||
| 05 | 11:53 | Vrbl 7 | 16.09 | Overcast | OVC015 | 13.9 | 10 | 78% | 76.25 | 1016.7 | |||||||
| 05 | 10:53 | W 6 | 16.09 | Overcast | OVC013 | 13.3 | 10 | 13.3 | 12.2 | 81% | 76.25 | 1016.6 | |||||
| 05 | 09:53 | SW 6 | 16.09 | Overcast | OVC014 | 12.8 | 10 | 83% | 76.23 | 1016.3 | |||||||
| 05 | 08:53 | SW 6 | 16.09 | Overcast | OVC014 | 12.8 | 9.4 | 80% | 76.2 | 1015.9 | |||||||
| 05 | 07:53 | SW 6 | 16.09 | Overcast | OVC014 | 12.8 | 9.4 | 80% | 76.17 | 1015.5 | |||||||
| 05 | 06:53 | SW 7 | 16.09 | Overcast | OVC014 | 12.2 | 9.4 | 83% | 76.15 | 1015.0 | |||||||
| 05 | 05:53 | S 9 | 16.09 | Overcast | OVC012 | 12.2 | 10 | 87% | 76.1 | 1014.4 | |||||||
| 05 | 04:53 | SW 7 | 16.09 | Overcast | OVC014 | 12.2 | 9.4 | 12.8 | 11.7 | 83% | 76.07 | 1014.0 | |||||
| 05 | 03:53 | SW 9 | 16.09 | Overcast | OVC012 | 12.2 | 10 | 87% | 76.05 | 1013.8 | |||||||
| 05 | 02:53 | SW 13 | 16.09 | Overcast | OVC012 | 12.2 | 10 | 87% | 76.05 | 1013.5 | |||||||
| 05 | 01:53 | SW 13 | 16.09 | Overcast | OVC011 | 12.2 | 10 | 87% | 76 | 1013.1 | |||||||
| 05 | 00:53 | SW 13 | 16.09 | Mostly Cloudy | BKN011 | 12.2 | 10 | 87% | 75.97 | 1012.8 | |||||||
| 04 | 23:53 | SW 9 | 16.09 | Fair | CLR | 12.2 | 10 | 87% | 75.95 | 1012.4 | |||||||
| 04 | 22:53 | SW 11 | 16.09 | Fair | CLR | 12.8 | 10 | 23.9 | 12.8 | 83% | 75.9 | 1011.8 | |||||
| 04 | 21:53 | SW 9 | 16.09 | Fair | CLR | 12.8 | 10 | 83% | 75.87 | 1011.4 | |||||||
| 04 | 20:53 | W 15 | 16.09 | Fair | CLR | 13.9 | 10 | 78% | 75.84 | 1010.9 | |||||||
| 04 | 19:53 | Vrbl 9 | 16.09 | Fair | CLR | 17.2 | 10.6 | 65% | 75.79 | 1010.3 | |||||||
| 04 | 18:53 | W 11 | 16.09 | Fair | CLR | 19.4 | 11.1 | 59% | 75.74 | 1009.7 | |||||||
| 04 | 17:53 | W 11 | 16.09 | Fair | CLR | 21.7 | 10.6 | 49% | 75.77 | 1009.8 | |||||||
| 04 | 16:53 | Vrbl 9 | 16.09 | Fair | CLR | 23.3 | 11.7 | 23.9 | 17.8 | 48% | 75.74 | 1009.6 | |||||
| 04 | 15:53 | Vrbl 7 | 16.09 | Fair | CLR | 23.3 | 12.2 | 50% | 75.77 | 1009.9 | |||||||
| 04 | 14:53 | Vrbl 11 | 16.09 | Fair | CLR | 22.2 | 11.7 | 52% | 75.82 | 1010.4 | |||||||
| 04 | 13:53 | W 11 | 16.09 | Fair | CLR | 21.7 | 12.2 | 55% | 75.84 | 1010.8 | |||||||
| 04 | 12:53 | W 11 | 16.09 | Fair | CLR | 20 | 11.7 | 59% | 75.84 | 1011.0 | |||||||
| 04 | 11:53 | SW 13 | 16.09 | Fair | CLR | 18.9 | 11.1 | 61% | 75.87 | 1011.4 | |||||||
| 04 | 10:53 | SW 15 | 16.09 | Fair | CLR | 18.3 | 10.6 | 18.3 | 11.1 | 61% | 75.87 | 1011.3 | |||||
| Date | Time (pdt) | Wind (kph) | Vis. (km) | Weather | Sky Cond. | Air | Dwpt | Max. | Min. | Relative Humidity | Wind Chill (°C) | Heat Index (°C) | altimeter (cm) | sea level (mb) | 1 hr | 3 hr | 6 hr |
| 6 hour | |||||||||||||||||
| Temperature (ºC) | Pressure | Precipitation (cm) | |||||||||||||||